Time,TemperatureF,DewpointF,PressureIn,WindDirection,WindDirectionDegrees,WindSpeedMPH,WindSpeedGustMPH,Humidity,HourlyPrecipIn,Conditions,Clouds,dailyrainin,SoftwareType,DateUTC
2013-01-07 00:00:00,19.9,16.1,30.37,WNW,300,0.0,0.0,85,0.00,,,0.00,VWS V14.01,2013-01-07 06:00:00,
2013-01-07 00:01:00,19.9,16.1,30.37,WNW,299,0.0,0.0,85,0.00,,CLR,0.00,VWS V14.01,2013-01-07 06:01:00,
2013-01-07 00:02:00,19.8,16.3,30.37,WNW,300,0.0,0.0,86,0.00,,CLR,0.00,VWS V14.01,2013-01-07 06:02:00,
2013-01-07 00:06:00,20.1,16.6,30.37,WNW,299,0.0,0.0,86,0.00,,CLR,0.00,VWS V14.01,2013-01-07 06:06:00,
2013-01-07 00:07:00,20.1,16.6,30.37,WNW,300,0.0,0.0,86,0.00,,CLR,0.00,VWS V14.01,2013-01-07 06:07:00,
2013-01-07 00:11:00,20.5,17.2,30.37,WNW,300,0.0,0.0,87,0.00,,CLR,0.00,VWS V14.01,2013-01-07 06:11:00,
2013-01-07 00:12:00,20.5,17.2,30.37,WNW,300,0.0,0.0,87,0.00,,CLR,0.00,VWS V14.01,2013-01-07 06:12:00,
2013-01-07 00:16:00,20.9,17.6,30.37,WNW,300,0.0,0.0,87,0.00,,CLR,0.00,VWS V14.01,2013-01-07 06:16:00,
2013-01-07 00:17:00,20.9,17.6,30.37,WNW,300,0.0,0.0,87,0.00,,CLR,0.00,VWS V14.01,2013-01-07 06:17:00,
2013-01-07 00:21:00,21.0,17.8,30.37,WNW,290,0.0,1.0,87,0.00,,CLR,0.00,VWS V14.01,2013-01-07 06:21:00,
2013-01-07 00:22:00,21.0,17.8,30.37,WNW,287,0.0,1.0,87,0.00,,CLR,0.00,VWS V14.01,2013-01-07 06:22:00,
2013-01-07 00:27:00,21.2,17.9,30.37,WNW,287,0.0,1.0,87,0.00,,CLR,0.00,VWS V14.01,2013-01-07 06:27:00,
2013-01-07 00:30:00,21.2,17.9,30.36,WNW,286,0.0,1.0,87,0.00,,,0.00,VWS V14.01,2013-01-07 06:30:00,
2013-01-07 00:32:00,21.3,18.0,30.36,WNW,284,0.0,0.0,87,0.00,,CLR,0.00,VWS V14.01,2013-01-07 06:32:00,
2013-01-07 00:33:00,21.3,18.0,30.36,WNW,284,0.0,0.0,87,0.00,,CLR,0.00,VWS V14.01,2013-01-07 06:33:00,
2013-01-07 00:37:00,21.5,18.2,30.36,WNW,284,0.0,0.0,87,0.00,,CLR,0.00,VWS V14.01,2013-01-07 06:37:00,
2013-01-07 00:38:00,21.5,18.2,30.36,WNW,284,0.0,0.0,87,0.00,,CLR,0.00,VWS V14.01,2013-01-07 06:38:00,
2013-01-07 00:42:00,21.7,18.4,30.36,WNW,284,0.0,0.0,87,0.00,,CLR,0.00,VWS V14.01,2013-01-07 06:42:00,
2013-01-07 00:43:00,21.7,18.4,30.36,SSW,213,0.0,1.0,87,0.00,,CLR,0.00,VWS V14.01,2013-01-07 06:43:00,
2013-01-07 00:47:00,21.7,18.4,30.36,SSW,213,0.0,1.0,87,0.00,,CLR,0.00,VWS V14.01,2013-01-07 06:47:00,
2013-01-07 00:48:00,21.7,18.4,30.36,SSW,213,0.0,1.0,87,0.00,,CLR,0.00,VWS V14.01,2013-01-07 06:48:00,
2013-01-07 00:52:00,21.7,18.4,30.36,SSW,212,0.0,1.0,87,0.00,,CLR,0.00,VWS V14.01,2013-01-07 06:52:00,
2013-01-07 00:53:00,21.7,18.4,30.36,SSW,212,0.0,1.0,87,0.00,,CLR,0.00,VWS V14.01,2013-01-07 06:53:00,
2013-01-07 00:57:00,21.7,18.4,30.36,SSW,212,0.0,1.0,87,0.00,,CLR,0.00,VWS V14.01,2013-01-07 06:57:00,
2013-01-07 00:58:00,21.7,18.4,30.36,SSW,212,0.0,1.0,87,0.00,,CLR,0.00,VWS V14.01,2013-01-07 06:58:00,
2013-01-07 01:00:00,21.7,18.4,30.37,SSW,212,0.0,1.0,87,0.00,,,0.00,VWS V14.01,2013-01-07 07:00:00,
2013-01-07 01:02:00,21.8,18.5,30.37,SSW,212,0.0,0.0,87,0.00,,CLR,0.00,VWS V14.01,2013-01-07 07:02:00,
2013-01-07 01:03:00,21.8,18.5,30.37,SSW,212,0.0,0.0,87,0.00,,CLR,0.00,VWS V14.01,2013-01-07 07:03:00,
2013-01-07 01:07:00,22.0,18.7,30.37,SSW,212,0.0,0.0,87,0.00,,CLR,0.00,VWS V14.01,2013-01-07 07:07:00,
2013-01-07 01:08:00,22.0,18.7,30.37,SSW,212,0.0,0.0,87,0.00,,CLR,0.00,VWS V14.01,2013-01-07 07:08:00,
2013-01-07 01:12:00,21.8,18.3,30.37,SSW,212,0.0,0.0,86,0.00,,CLR,0.00,VWS V14.01,2013-01-07 07:12:00,
2013-01-07 01:13:00,21.8,18.3,30.37,SSW,212,0.0,0.0,86,0.00,,CLR,0.00,VWS V14.01,2013-01-07 07:13:00,
2013-01-07 01:18:00,21.8,18.3,30.36,SSW,212,0.0,0.0,86,0.00,,CLR,0.00,VWS V14.01,2013-01-07 07:18:00,
2013-01-07 01:23:00,21.7,18.2,30.36,SSW,212,0.0,1.0,86,0.00,,CLR,0.00,VWS V14.01,2013-01-07 07:23:00,
2013-01-07 01:28:00,21.8,18.3,30.36,SSW,212,0.0,1.0,86,0.00,,CLR,0.00,VWS V14.01,2013-01-07 07:28:00,
2013-01-07 01:30:00,21.8,18.3,30.36,SSW,212,0.0,1.0,86,0.00,,,0.00,VWS V14.01,2013-01-07 07:30:00,
2013-01-07 01:33:00,21.8,18.3,30.36,SSW,212,0.0,0.0,86,0.00,,CLR,0.00,VWS V14.01,2013-01-07 07:33:00,
2013-01-07 01:38:00,22.0,18.5,30.36,SSW,212,0.0,0.0,86,0.00,,CLR,0.00,VWS V14.01,2013-01-07 07:38:00,
2013-01-07 01:43:00,22.0,18.5,30.36,SSW,206,0.0,1.0,86,0.00,,CLR,0.00,VWS V14.01,2013-01-07 07:43:00,
2013-01-07 01:44:00,22.0,18.5,30.37,SSW,206,0.0,1.0,86,0.00,,CLR,0.00,VWS V14.01,2013-01-07 07:44:00,
2013-01-07 01:48:00,22.1,18.6,30.37,SSW,205,0.0,1.0,86,0.00,,CLR,0.00,VWS V14.01,2013-01-07 07:48:00,
2013-01-07 01:49:00,22.1,18.6,30.37,SSW,205,0.0,1.0,86,0.00,,CLR,0.00,VWS V14.01,2013-01-07 07:49:00,
2013-01-07 01:53:00,22.1,18.6,30.37,SSW,205,0.0,1.0,86,0.00,,CLR,0.00,VWS V14.01,2013-01-07 07:53:00,
2013-01-07 01:54:00,22.1,18.6,30.37,SSW,205,0.0,1.0,86,0.00,,CLR,0.00,VWS V14.01,2013-01-07 07:54:00,
2013-01-07 01:59:00,22.1,18.3,30.37,SSW,204,0.0,1.0,85,0.00,,CLR,0.00,VWS V14.01,2013-01-07 07:59:00,
2013-01-07 02:00:00,22.1,18.3,30.37,SSW,204,0.0,1.0,85,0.00,,,0.00,VWS V14.01,2013-01-07 08:00:00,
2013-01-07 02:04:00,22.1,18.3,30.37,SSW,204,0.0,0.0,85,0.00,,CLR,0.00,VWS V14.01,2013-01-07 08:04:00,
2013-01-07 02:09:00,22.1,18.3,30.37,SSW,204,0.0,0.0,85,0.00,,CLR,0.00,VWS V14.01,2013-01-07 08:09:00,
2013-01-07 02:14:00,22.3,18.5,30.37,SSW,204,0.0,1.0,85,0.00,,CLR,0.00,VWS V14.01,2013-01-07 08:14:00,
2013-01-07 02:19:00,22.3,18.5,30.37,SSW,204,0.0,1.0,85,0.00,,CLR,0.00,VWS V14.01,2013-01-07 08:19:00,
2013-01-07 02:24:00,22.0,17.9,30.37,SSW,204,0.0,1.0,84,0.00,,CLR,0.00,VWS V14.01,2013-01-07 08:24:00,
2013-01-07 02:25:00,22.0,17.9,30.37,SSW,204,0.0,1.0,84,0.00,,CLR,0.00,VWS V14.01,2013-01-07 08:25:00,
2013-01-07 02:29:00,21.8,17.7,30.37,SSW,204,0.0,1.0,84,0.00,,CLR,0.00,VWS V14.01,2013-01-07 08:29:00,
2013-01-07 02:30:00,21.8,17.7,30.37,SSW,204,0.0,0.0,84,0.00,,CLR,0.00,VWS V14.01,2013-01-07 08:30:00,
2013-01-07 02:34:00,21.7,17.6,30.37,SSW,204,0.0,0.0,84,0.00,,CLR,0.00,VWS V14.01,2013-01-07 08:34:00,
2013-01-07 02:35:00,21.7,17.6,30.37,SSW,204,0.0,0.0,84,0.00,,CLR,0.00,VWS V14.01,2013-01-07 08:35:00,
2013-01-07 02:39:00,21.7,17.6,30.37,SSW,204,0.0,0.0,84,0.00,,CLR,0.00,VWS V14.01,2013-01-07 08:39:00,
2013-01-07 02:40:00,21.5,17.4,30.37,SSW,204,0.0,0.0,84,0.00,,CLR,0.00,VWS V14.01,2013-01-07 08:40:00,
2013-01-07 02:44:00,21.3,17.2,30.37,SSW,204,0.0,0.0,84,0.00,,CLR,0.00,VWS V14.01,2013-01-07 08:44:00,
2013-01-07 02:45:00,21.3,17.2,30.37,SSW,204,0.0,0.0,84,0.00,,CLR,0.00,VWS V14.01,2013-01-07 08:45:00,
2013-01-07 02:50:00,21.7,17.9,30.37,SSW,202,0.0,2.0,85,0.00,,CLR,0.00,VWS V14.01,2013-01-07 08:50:00,
2013-01-07 02:55:00,21.8,18.0,30.37,SSW,198,1.0,2.0,85,0.00,,CLR,0.00,VWS V14.01,2013-01-07 08:55:00,
2013-01-07 03:00:00,21.8,17.7,30.37,SSW,198,0.0,0.0,84,0.00,,CLR,0.00,VWS V14.01,2013-01-07 09:00:00,
2013-01-07 03:05:00,21.5,17.4,30.37,SSW,198,0.0,0.0,84,0.00,,CLR,0.00,VWS V14.01,2013-01-07 09:05:00,
2013-01-07 03:10:00,21.2,17.1,30.37,SSW,198,0.0,0.0,84,0.00,,CLR,0.00,VWS V14.01,2013-01-07 09:10:00,
2013-01-07 03:11:00,21.2,17.1,30.37,SSW,197,0.0,0.0,84,0.00,,CLR,0.00,VWS V14.01,2013-01-07 09:11:00,
2013-01-07 03:15:00,21.2,17.1,30.37,SSW,196,0.0,0.0,84,0.00,,CLR,0.00,VWS V14.01,2013-01-07 09:15:00,
2013-01-07 03:16:00,21.2,17.1,30.37,SSW,196,0.0,0.0,84,0.00,,CLR,0.00,VWS V14.01,2013-01-07 09:16:00,
2013-01-07 03:20:00,21.2,17.1,30.37,SSW,192,1.0,2.0,84,0.00,,CLR,0.00,VWS V14.01,2013-01-07 09:20:00,
2013-01-07 03:21:00,21.2,17.4,30.37,SSW,193,1.0,2.0,85,0.00,,CLR,0.00,VWS V14.01,2013-01-07 09:21:00,
2013-01-07 03:25:00,21.3,17.5,30.37,SSW,192,0.0,2.0,85,0.00,,CLR,0.00,VWS V14.01,2013-01-07 09:25:00,
2013-01-07 03:26:00,21.3,17.5,30.37,SSW,192,0.0,2.0,85,0.00,,CLR,0.00,VWS V14.01,2013-01-07 09:26:00,
2013-01-07 03:30:00,21.7,17.9,30.37,South,184,0.0,3.0,85,0.00,,CLR,0.00,VWS V14.01,2013-01-07 09:30:00,
2013-01-07 03:31:00,21.7,17.9,30.37,South,184,0.0,3.0,85,0.00,,CLR,0.00,VWS V14.01,2013-01-07 09:31:00,
2013-01-07 03:35:00,21.8,18.0,30.37,South,183,0.0,3.0,85,0.00,,CLR,0.00,VWS V14.01,2013-01-07 09:35:00,
2013-01-07 03:36:00,21.8,18.0,30.37,South,184,0.0,3.0,85,0.00,,CLR,0.00,VWS V14.01,2013-01-07 09:36:00,
2013-01-07 03:40:00,21.8,18.0,30.37,South,182,0.0,3.0,85,0.00,,CLR,0.00,VWS V14.01,2013-01-07 09:40:00,
2013-01-07 03:41:00,21.8,18.0,30.37,South,182,0.0,3.0,85,0.00,,CLR,0.00,VWS V14.01,2013-01-07 09:41:00,
2013-01-07 03:45:00,21.8,18.0,30.37,South,182,0.0,3.0,85,0.00,,CLR,0.00,VWS V14.01,2013-01-07 09:45:00,
2013-01-07 03:46:00,21.8,18.0,30.37,South,182,0.0,3.0,85,0.00,,CLR,0.00,VWS V14.01,2013-01-07 09:46:00,
2013-01-07 03:51:00,22.0,18.2,30.37,South,182,0.0,3.0,85,0.00,,CLR,0.00,VWS V14.01,2013-01-07 09:51:00,
2013-01-07 03:56:00,22.0,18.2,30.37,South,182,0.0,3.0,85,0.00,,CLR,0.00,VWS V14.01,2013-01-07 09:56:00,
2013-01-07 03:57:00,22.0,18.2,30.37,South,180,0.0,3.0,85,0.00,,CLR,0.00,VWS V14.01,2013-01-07 09:57:00,
2013-01-07 04:00:00,22.1,18.3,30.37,South,178,0.0,3.0,85,0.00,,,0.00,VWS V14.01,2013-01-07 10:00:00,
2013-01-07 04:01:00,22.1,18.3,30.37,South,175,0.0,1.0,85,0.00,,CLR,0.00,VWS V14.01,2013-01-07 10:01:00,
2013-01-07 04:02:00,22.1,18.3,30.37,South,172,0.0,3.0,85,0.00,,CLR,0.00,VWS V14.01,2013-01-07 10:02:00,
2013-01-07 04:06:00,22.3,18.5,30.37,South,191,0.0,3.0,85,0.00,,CLR,0.00,VWS V14.01,2013-01-07 10:06:00,
2013-01-07 04:07:00,22.3,18.5,30.37,South,187,2.0,3.0,85,0.00,,CLR,0.00,VWS V14.01,2013-01-07 10:07:00,
2013-01-07 04:11:00,22.4,18.6,30.37,South,185,0.0,3.0,85,0.00,,CLR,0.00,VWS V14.01,2013-01-07 10:11:00,
2013-01-07 04:12:00,22.4,18.6,30.37,South,185,0.0,3.0,85,0.00,,CLR,0.00,VWS V14.01,2013-01-07 10:12:00,
2013-01-07 04:16:00,22.4,18.6,30.37,South,183,0.0,3.0,85,0.00,,CLR,0.00,VWS V14.01,2013-01-07 10:16:00,
2013-01-07 04:17:00,22.4,18.6,30.37,South,183,0.0,3.0,85,0.00,,CLR,0.00,VWS V14.01,2013-01-07 10:17:00,
2013-01-07 04:21:00,22.4,18.6,30.37,South,174,0.0,3.0,85,0.00,,CLR,0.00,VWS V14.01,2013-01-07 10:21:00,
2013-01-07 04:22:00,22.4,18.6,30.37,South,174,0.0,3.0,85,0.00,,CLR,0.00,VWS V14.01,2013-01-07 10:22:00,
2013-01-07 04:26:00,22.4,18.6,30.37,South,173,0.0,3.0,85,0.00,,CLR,0.00,VWS V14.01,2013-01-07 10:26:00,
2013-01-07 04:27:00,22.4,18.6,30.37,South,173,0.0,3.0,85,0.00,,CLR,0.00,VWS V14.01,2013-01-07 10:27:00,
2013-01-07 04:30:00,22.4,18.6,30.37,South,173,0.0,3.0,85,0.00,,,0.00,VWS V14.01,2013-01-07 10:30:00,
2013-01-07 04:31:00,22.4,18.6,30.37,South,175,2.0,3.0,85,0.00,,CLR,0.00,VWS V14.01,2013-01-07 10:31:00,
2013-01-07 04:32:00,22.4,18.6,30.37,South,175,1.0,3.0,85,0.00,,CLR,0.00,VWS V14.01,2013-01-07 10:32:00,
2013-01-07 04:37:00,22.4,18.6,30.37,South,175,0.0,3.0,85,0.00,,CLR,0.00,VWS V14.01,2013-01-07 10:37:00,
2013-01-07 04:38:00,22.4,18.6,30.37,South,175,0.0,3.0,85,0.00,,CLR,0.00,VWS V14.01,2013-01-07 10:38:00,
2013-01-07 04:42:00,22.4,18.6,30.37,South,180,0.0,3.0,85,0.00,,CLR,0.00,VWS V14.01,2013-01-07 10:42:00,
2013-01-07 04:43:00,22.4,18.9,30.37,South,179,0.0,3.0,86,0.00,,CLR,0.00,VWS V14.01,2013-01-07 10:43:00,
2013-01-07 04:47:00,22.4,18.6,30.37,South,180,0.0,3.0,85,0.00,,CLR,0.00,VWS V14.01,2013-01-07 10:47:00,
2013-01-07 04:48:00,22.4,18.6,30.37,South,180,0.0,3.0,85,0.00,,CLR,0.00,VWS V14.01,2013-01-07 10:48:00,
2013-01-07 04:52:00,22.4,18.9,30.37,South,180,0.0,3.0,86,0.00,,CLR,0.00,VWS V14.01,2013-01-07 10:52:00,
2013-01-07 04:53:00,22.4,18.9,30.37,South,180,0.0,3.0,86,0.00,,CLR,0.00,VWS V14.01,2013-01-07 10:53:00,
2013-01-07 04:57:00,22.3,18.8,30.37,South,180,0.0,3.0,86,0.00,,CLR,0.00,VWS V14.01,2013-01-07 10:57:00,
2013-01-07 04:58:00,22.3,18.8,30.37,South,180,0.0,3.0,86,0.00,,CLR,0.00,VWS V14.01,2013-01-07 10:58:00,
2013-01-07 05:00:00,22.3,18.8,30.37,South,180,0.0,3.0,86,0.00,,,0.00,VWS V14.01,2013-01-07 11:00:00,
2013-01-07 05:02:00,22.3,18.8,30.37,South,180,0.0,0.0,86,0.00,,CLR,0.00,VWS V14.01,2013-01-07 11:02:00,
2013-01-07 05:03:00,22.3,18.8,30.37,South,180,0.0,0.0,86,0.00,,CLR,0.00,VWS V14.01,2013-01-07 11:03:00,
2013-01-07 05:07:00,22.3,18.8,30.37,South,179,0.0,0.0,86,0.00,,CLR,0.00,VWS V14.01,2013-01-07 11:07:00,
2013-01-07 05:08:00,22.1,18.6,30.37,South,179,0.0,0.0,86,0.00,,CLR,0.00,VWS V14.01,2013-01-07 11:08:00,
2013-01-07 05:12:00,22.1,18.6,30.37,South,180,0.0,0.0,86,0.00,,CLR,0.00,VWS V14.01,2013-01-07 11:12:00,
2013-01-07 05:13:00,22.1,18.6,30.37,South,180,0.0,0.0,86,0.00,,CLR,0.00,VWS V14.01,2013-01-07 11:13:00,
2013-01-07 05:17:00,22.1,18.6,30.37,South,180,0.0,0.0,86,0.00,,CLR,0.00,VWS V14.01,2013-01-07 11:17:00,
2013-01-07 05:18:00,22.1,18.6,30.37,South,180,0.0,0.0,86,0.00,,CLR,0.00,VWS V14.01,2013-01-07 11:18:00,
2013-01-07 05:19:00,22.1,18.6,30.37,South,180,0.0,0.0,86,0.00,,CLR,0.00,VWS V14.01,2013-01-07 11:19:00,
2013-01-07 05:22:00,22.3,18.8,30.37,South,178,0.0,3.0,86,0.00,,CLR,0.00,VWS V14.01,2013-01-07 11:22:00,
2013-01-07 05:23:00,22.3,18.8,30.37,South,178,0.0,3.0,86,0.00,,CLR,0.00,VWS V14.01,2013-01-07 11:23:00,
2013-01-07 05:24:00,22.3,18.8,30.37,South,178,0.0,3.0,86,0.00,,CLR,0.00,VWS V14.01,2013-01-07 11:24:00,
2013-01-07 05:27:00,22.1,18.6,30.37,South,178,0.0,3.0,86,0.00,,CLR,0.00,VWS V14.01,2013-01-07 11:27:00,
2013-01-07 05:28:00,22.1,18.6,30.37,South,178,0.0,3.0,86,0.00,,CLR,0.00,VWS V14.01,2013-01-07 11:28:00,
2013-01-07 05:29:00,22.1,18.6,30.37,South,178,0.0,3.0,86,0.00,,CLR,0.00,VWS V14.01,2013-01-07 11:29:00,
2013-01-07 05:30:00,22.1,18.6,30.37,South,178,0.0,3.0,86,0.00,,,0.00,VWS V14.01,2013-01-07 11:30:00,
2013-01-07 05:33:00,22.1,18.6,30.37,South,178,0.0,0.0,86,0.00,,CLR,0.00,VWS V14.01,2013-01-07 11:33:00,
2013-01-07 05:34:00,22.1,18.6,30.37,South,178,0.0,2.0,86,0.00,,CLR,0.00,VWS V14.01,2013-01-07 11:34:00,
2013-01-07 05:38:00,22.1,18.6,30.37,South,178,0.0,2.0,86,0.00,,CLR,0.00,VWS V14.01,2013-01-07 11:38:00,
2013-01-07 05:40:00,22.3,18.8,30.37,South,176,0.0,3.0,86,0.00,,CLR,0.00,VWS V14.01,2013-01-07 11:40:00,
2013-01-07 05:43:00,22.3,18.8,30.37,South,176,0.0,3.0,86,0.00,,CLR,0.00,VWS V14.01,2013-01-07 11:43:00,
2013-01-07 05:45:00,22.3,18.8,30.37,South,176,0.0,3.0,86,0.00,,CLR,0.00,VWS V14.01,2013-01-07 11:45:00,
2013-01-07 05:48:00,22.3,18.8,30.37,South,175,0.0,3.0,86,0.00,,CLR,0.00,VWS V14.01,2013-01-07 11:48:00,
2013-01-07 05:50:00,22.3,18.8,30.37,South,175,0.0,3.0,86,0.00,,CLR,0.00,VWS V14.01,2013-01-07 11:50:00,
2013-01-07 05:53:00,22.3,18.8,30.37,SSE,167,0.0,3.0,86,0.00,,CLR,0.00,VWS V14.01,2013-01-07 11:53:00,
2013-01-07 05:55:00,22.3,18.8,30.37,SSE,167,2.0,3.0,86,0.00,,CLR,0.00,VWS V14.01,2013-01-07 11:55:00,
2013-01-07 05:58:00,22.4,18.9,30.37,SSE,167,0.0,3.0,86,0.00,,CLR,0.00,VWS V14.01,2013-01-07 11:58:00,
2013-01-07 06:00:00,22.4,18.9,30.37,SSE,166,0.0,0.0,86,0.00,,CLR,0.00,VWS V14.01,2013-01-07 12:00:00,
2013-01-07 06:03:00,22.4,18.9,30.37,SSE,163,0.0,3.0,86,0.00,,CLR,0.00,VWS V14.01,2013-01-07 12:03:00,
2013-01-07 06:05:00,22.4,18.9,30.37,SSE,163,1.0,3.0,86,0.00,,CLR,0.00,VWS V14.01,2013-01-07 12:05:00,
2013-01-07 06:08:00,22.4,18.9,30.37,SSE,167,0.0,4.0,86,0.00,,CLR,0.00,VWS V14.01,2013-01-07 12:08:00,
2013-01-07 06:09:00,22.4,18.9,30.37,South,169,0.0,4.0,86,0.00,,CLR,0.00,VWS V14.01,2013-01-07 12:09:00,
2013-01-07 06:10:00,22.4,18.9,30.37,South,169,0.0,4.0,86,0.00,,CLR,0.00,VWS V14.01,2013-01-07 12:10:00,
2013-01-07 06:13:00,22.4,18.9,30.37,South,188,0.0,4.0,86,0.00,,CLR,0.00,VWS V14.01,2013-01-07 12:13:00,
2013-01-07 06:14:00,22.4,18.9,30.37,South,186,4.0,4.0,86,0.00,,CLR,0.00,VWS V14.01,2013-01-07 12:14:00,
2013-01-07 06:16:00,22.4,18.9,30.37,SSE,167,0.0,4.0,86,0.00,,CLR,0.00,VWS V14.01,2013-01-07 12:16:00,
2013-01-07 06:18:00,22.4,18.9,30.37,South,184,0.0,4.0,86,0.00,,CLR,0.00,VWS V14.01,2013-01-07 12:18:00,
2013-01-07 06:19:00,22.4,18.9,30.37,South,179,1.0,4.0,86,0.00,,CLR,0.00,VWS V14.01,2013-01-07 12:19:00,
2013-01-07 06:21:00,22.4,18.9,30.37,South,178,5.0,5.0,86,0.00,,CLR,0.00,VWS V14.01,2013-01-07 12:21:00,
2013-01-07 06:23:00,22.6,19.0,30.37,South,184,0.0,5.0,86,0.00,,CLR,0.00,VWS V14.01,2013-01-07 12:23:00,
2013-01-07 06:24:00,22.6,19.0,30.37,South,182,0.0,5.0,86,0.00,,CLR,0.00,VWS V14.01,2013-01-07 12:24:00,
2013-01-07 06:26:00,22.6,19.0,30.37,South,178,0.0,5.0,86,0.00,,CLR,0.00,VWS V14.01,2013-01-07 12:26:00,
2013-01-07 06:28:00,22.6,19.0,30.37,South,169,0.0,5.0,86,0.00,,CLR,0.00,VWS V14.01,2013-01-07 12:28:00,
2013-01-07 06:29:00,22.6,19.0,30.37,SSE,166,2.0,5.0,86,0.00,,CLR,0.00,VWS V14.01,2013-01-07 12:29:00,
2013-01-07 06:30:00,22.6,19.0,30.37,SSE,167,0.0,5.0,86,0.00,,,0.00,VWS V14.01,2013-01-07 12:30:00,
2013-01-07 06:31:00,22.6,19.0,30.37,South,188,1.0,4.0,86,0.00,,CLR,0.00,VWS V14.01,2013-01-07 12:31:00,
2013-01-07 06:33:00,22.6,19.0,30.37,South,172,0.0,4.0,86,0.00,,CLR,0.00,VWS V14.01,2013-01-07 12:33:00,
2013-01-07 06:34:00,22.6,19.0,30.37,South,186,2.0,4.0,86,0.00,,CLR,0.00,VWS V14.01,2013-01-07 12:34:00,
2013-01-07 06:36:00,22.6,19.0,30.37,SSE,155,3.0,5.0,86,0.00,,CLR,0.00,VWS V14.01,2013-01-07 12:36:00,
2013-01-07 06:39:00,22.8,19.2,30.37,South,182,0.0,5.0,86,0.00,,CLR,0.00,VWS V14.01,2013-01-07 12:39:00,
2013-01-07 06:41:00,22.8,19.2,30.37,SSW,193,3.0,5.0,86,0.00,,CLR,0.00,VWS V14.01,2013-01-07 12:41:00,
2013-01-07 06:44:00,22.8,19.2,30.37,SSE,163,0.0,5.0,86,0.00,,CLR,0.00,VWS V14.01,2013-01-07 12:44:00,
2013-01-07 06:45:00,22.8,19.2,30.37,SSE,162,1.0,5.0,86,0.00,,CLR,0.00,VWS V14.01,2013-01-07 12:45:00,
2013-01-07 06:46:00,22.8,19.2,30.37,South,189,0.0,5.0,86,0.00,,CLR,0.00,VWS V14.01,2013-01-07 12:46:00,
2013-01-07 06:49:00,22.8,19.2,30.37,SSE,158,2.0,6.0,86,0.00,,CLR,0.00,VWS V14.01,2013-01-07 12:49:00,
2013-01-07 06:50:00,22.9,19.4,30.37,South,174,3.0,6.0,86,0.00,,CLR,0.00,VWS V14.01,2013-01-07 12:50:00,
2013-01-07 06:51:00,22.9,19.4,30.37,South,171,3.0,6.0,86,0.00,,CLR,0.00,VWS V14.01,2013-01-07 12:51:00,
2013-01-07 06:54:00,22.9,19.4,30.37,South,169,0.0,6.0,86,0.00,,CLR,0.00,VWS V14.01,2013-01-07 12:54:00,
2013-01-07 06:56:00,22.9,19.4,30.37,South,186,3.0,6.0,86,0.00,,CLR,0.00,VWS V14.01,2013-01-07 12:56:00,
2013-01-07 06:59:00,22.9,19.4,30.37,South,184,4.0,6.0,86,0.00,,CLR,0.00,VWS V14.01,2013-01-07 12:59:00,
2013-01-07 07:00:00,22.9,19.4,30.37,SE,144,3.0,6.0,86,0.00,,,0.00,VWS V14.01,2013-01-07 13:00:00,
2013-01-07 07:01:00,22.9,19.4,30.37,SE,136,2.0,5.0,86,0.00,,,0.00,VWS V14.01,2013-01-07 13:01:00,
2013-01-07 07:02:00,23.1,19.5,30.37,South,174,0.0,5.0,86,0.00,,,0.00,VWS V14.01,2013-01-07 13:02:00,
2013-01-07 07:04:00,23.1,19.3,30.37,South,174,2.0,6.0,85,0.00,,,0.00,VWS V14.01,2013-01-07 13:04:00,
2013-01-07 07:05:00,23.1,19.3,30.37,South,173,0.0,6.0,85,0.00,,,0.00,VWS V14.01,2013-01-07 13:05:00,
2013-01-07 07:06:00,23.1,19.3,30.37,South,173,2.0,6.0,85,0.00,,,0.00,VWS V14.01,2013-01-07 13:06:00,
2013-01-07 07:07:00,23.1,19.3,30.37,South,173,0.0,6.0,85,0.00,,,0.00,VWS V14.01,2013-01-07 13:07:00,
2013-01-07 07:09:00,23.1,19.3,30.37,SSW,192,0.0,6.0,85,0.00,,,0.00,VWS V14.01,2013-01-07 13:09:00,
2013-01-07 07:10:00,23.1,19.3,30.37,SSW,192,0.0,6.0,85,0.00,,,0.00,VWS V14.01,2013-01-07 13:10:00,
2013-01-07 07:11:00,23.1,19.3,30.37,SSW,200,6.0,6.0,85,0.00,,,0.00,VWS V14.01,2013-01-07 13:11:00,
2013-01-07 07:12:00,23.1,19.3,30.37,SSE,157,0.0,7.0,85,0.00,,,0.00,VWS V14.01,2013-01-07 13:12:00,
2013-01-07 07:14:00,23.1,19.3,30.37,SE,144,4.0,7.0,85,0.00,,,0.00,VWS V14.01,2013-01-07 13:14:00,
2013-01-07 07:15:00,23.1,19.3,30.37,SSE,161,2.0,7.0,85,0.00,,,0.00,VWS V14.01,2013-01-07 13:15:00,
2013-01-07 07:16:00,23.1,19.3,30.37,SSE,158,6.0,7.0,85,0.00,,,0.00,VWS V14.01,2013-01-07 13:16:00,
2013-01-07 07:17:00,23.2,19.4,30.37,South,172,0.0,7.0,85,0.00,,,0.00,VWS V14.01,2013-01-07 13:17:00,
2013-01-07 07:19:00,23.2,19.4,30.37,South,182,1.0,7.0,85,0.00,,,0.00,VWS V14.01,2013-01-07 13:19:00,
2013-01-07 07:20:00,23.2,19.4,30.37,SSE,168,2.0,7.0,85,0.00,,,0.00,VWS V14.01,2013-01-07 13:20:00,
2013-01-07 07:21:00,23.1,19.3,30.37,South,169,2.0,7.0,85,0.00,,,0.00,VWS V14.01,2013-01-07 13:21:00,
2013-01-07 07:22:00,23.2,19.4,30.37,South,187,0.0,7.0,85,0.00,,,0.00,VWS V14.01,2013-01-07 13:22:00,
2013-01-07 07:24:00,23.2,19.4,30.37,SSW,196,0.0,7.0,85,0.00,,,0.00,VWS V14.01,2013-01-07 13:24:00,
2013-01-07 07:25:00,23.2,19.4,30.37,SSW,196,0.0,7.0,85,0.00,,,0.00,VWS V14.01,2013-01-07 13:25:00,
2013-01-07 07:26:00,23.2,19.4,30.37,SSE,163,3.0,7.0,85,0.00,,,0.00,VWS V14.01,2013-01-07 13:26:00,
2013-01-07 07:27:00,23.2,19.4,30.37,South,180,7.0,7.0,85,0.00,,,0.00,VWS V14.01,2013-01-07 13:27:00,
2013-01-07 07:29:00,23.2,19.4,30.37,South,182,2.0,8.0,85,0.00,,,0.00,VWS V14.01,2013-01-07 13:29:00,
2013-01-07 07:30:00,23.2,19.4,30.37,South,178,1.0,1.0,85,0.00,,,0.00,VWS V14.01,2013-01-07 13:30:00,
2013-01-07 07:31:00,23.2,19.4,30.37,SSE,159,4.0,5.0,85,0.00,,,0.00,VWS V14.01,2013-01-07 13:31:00,
2013-01-07 07:32:00,23.2,19.4,30.37,South,170,0.0,5.0,85,0.00,,,0.00,VWS V14.01,2013-01-07 13:32:00,
2013-01-07 07:34:00,23.2,19.1,30.37,South,169,0.0,5.0,84,0.00,,,0.00,VWS V14.01,2013-01-07 13:34:00,
2013-01-07 07:35:00,23.2,19.1,30.37,South,190,3.0,5.0,84,0.00,,,0.00,VWS V14.01,2013-01-07 13:35:00,
2013-01-07 07:36:00,23.2,19.1,30.37,SSE,147,4.0,5.0,84,0.00,,,0.00,VWS V14.01,2013-01-07 13:36:00,
2013-01-07 07:37:00,23.2,19.1,30.37,South,180,2.0,6.0,84,0.00,,,0.00,VWS V14.01,2013-01-07 13:37:00,
2013-01-07 07:39:00,23.2,19.1,30.37,South,170,0.0,6.0,84,0.00,,,0.00,VWS V14.01,2013-01-07 13:39:00,
2013-01-07 07:41:00,23.2,19.1,30.37,SSW,194,0.0,6.0,84,0.00,,,0.00,VWS V14.01,2013-01-07 13:41:00,
2013-01-07 07:43:00,23.2,19.1,30.37,SSE,155,3.0,6.0,84,0.00,,,0.00,VWS V14.01,2013-01-07 13:43:00,
2013-01-07 07:44:00,23.4,19.3,30.37,South,169,0.0,7.0,84,0.00,,,0.00,VWS V14.01,2013-01-07 13:44:00,
2013-01-07 07:46:00,23.4,19.3,30.37,South,178,1.0,7.0,84,0.00,,,0.00,VWS V14.01,2013-01-07 13:46:00,
2013-01-07 07:48:00,23.4,19.3,30.37,South,173,0.0,7.0,84,0.00,,,0.00,VWS V14.01,2013-01-07 13:48:00,
2013-01-07 07:49:00,23.5,19.4,30.37,South,183,5.0,7.0,84,0.00,,,0.00,VWS V14.01,2013-01-07 13:49:00,
2013-01-07 07:51:00,23.5,19.4,30.37,ESE,123,4.0,7.0,84,0.00,,,0.00,VWS V14.01,2013-01-07 13:51:00,
2013-01-07 07:53:00,23.5,19.4,30.37,SSE,158,0.0,7.0,84,0.00,,,0.00,VWS V14.01,2013-01-07 13:53:00,
2013-01-07 07:54:00,23.7,19.6,30.37,SE,137,2.0,7.0,84,0.00,,,0.00,VWS V14.01,2013-01-07 13:54:00,
2013-01-07 07:56:00,23.7,19.6,30.37,SE,142,3.0,7.0,84,0.00,,,0.00,VWS V14.01,2013-01-07 13:56:00,
2013-01-07 07:57:00,23.7,19.6,30.37,South,170,3.0,7.0,84,0.00,,,0.00,VWS V14.01,2013-01-07 13:57:00,
2013-01-07 07:58:00,23.8,19.7,30.37,SSE,165,0.0,7.0,84,0.00,,,0.00,VWS V14.01,2013-01-07 13:58:00,
2013-01-07 07:59:00,23.8,19.7,30.37,South,182,3.0,7.0,84,0.00,,,0.00,VWS V14.01,2013-01-07 13:59:00,
2013-01-07 08:00:00,23.8,19.7,30.37,South,182,3.0,7.0,84,0.00,,,0.00,VWS V14.01,2013-01-07 14:00:00,
2013-01-07 08:01:00,24.0,19.9,30.37,SSE,155,2.0,5.0,84,0.00,,,0.00,VWS V14.01,2013-01-07 14:01:00,
2013-01-07 08:02:00,24.0,19.9,30.37,South,183,0.0,5.0,84,0.00,,,0.00,VWS V14.01,2013-01-07 14:02:00,
2013-01-07 08:04:00,24.1,20.0,30.37,South,187,0.0,6.0,84,0.00,,,0.00,VWS V14.01,2013-01-07 14:04:00,
2013-01-07 08:05:00,24.1,20.0,30.37,South,175,2.0,6.0,84,0.00,,,0.00,VWS V14.01,2013-01-07 14:05:00,
2013-01-07 08:06:00,24.1,20.0,30.37,South,185,3.0,6.0,84,0.00,,,0.00,VWS V14.01,2013-01-07 14:06:00,
2013-01-07 08:07:00,24.3,20.2,30.37,SSE,160,0.0,6.0,84,0.00,,,0.00,VWS V14.01,2013-01-07 14:07:00,
2013-01-07 08:09:00,24.4,20.3,30.37,SE,142,0.0,6.0,84,0.00,,,0.00,VWS V14.01,2013-01-07 14:09:00,
2013-01-07 08:10:00,24.4,20.0,30.37,South,188,0.0,6.0,83,0.00,,,0.00,VWS V14.01,2013-01-07 14:10:00,
2013-01-07 08:11:00,24.4,20.0,30.37,South,188,0.0,6.0,83,0.00,,,0.00,VWS V14.01,2013-01-07 14:11:00,
2013-01-07 08:12:00,24.6,20.2,30.37,South,187,0.0,6.0,83,0.00,,,0.00,VWS V14.01,2013-01-07 14:12:00,
2013-01-07 08:14:00,24.6,20.2,30.37,South,177,3.0,6.0,83,0.00,,,0.00,VWS V14.01,2013-01-07 14:14:00,
2013-01-07 08:15:00,24.7,20.3,30.37,South,185,2.0,11.0,83,0.00,,,0.00,VWS V14.01,2013-01-07 14:15:00,
2013-01-07 08:16:00,24.7,20.3,30.37,SSE,157,3.0,11.0,83,0.00,,,0.00,VWS V14.01,2013-01-07 14:16:00,
2013-01-07 08:17:00,24.7,20.3,30.37,South,173,4.0,11.0,83,0.00,,,0.00,VWS V14.01,2013-01-07 14:17:00,
2013-01-07 08:19:00,24.9,20.5,30.37,South,177,3.0,11.0,83,0.00,,,0.00,VWS V14.01,2013-01-07 14:19:00,
2013-01-07 08:20:00,24.9,20.2,30.37,South,189,2.0,11.0,82,0.00,,,0.00,VWS V14.01,2013-01-07 14:20:00,
2013-01-07 08:21:00,24.9,20.2,30.37,SSE,148,9.0,11.0,82,0.00,,,0.00,VWS V14.01,2013-01-07 14:21:00,
2013-01-07 08:22:00,25.0,20.3,30.37,South,180,6.0,11.0,82,0.00,,,0.00,VWS V14.01,2013-01-07 14:22:00,
2013-01-07 08:24:00,25.0,20.3,30.37,SSE,148,6.0,11.0,82,0.00,,,0.00,VWS V14.01,2013-01-07 14:24:00,
2013-01-07 08:25:00,25.2,20.5,30.37,South,172,0.0,11.0,82,0.00,,,0.00,VWS V14.01,2013-01-07 14:25:00,
2013-01-07 08:26:00,25.2,20.5,30.37,SSE,149,7.0,11.0,82,0.00,,,0.00,VWS V14.01,2013-01-07 14:26:00,
2013-01-07 08:27:00,25.3,20.6,30.37,SSE,167,3.0,11.0,82,0.00,,,0.00,VWS V14.01,2013-01-07 14:27:00,
2013-01-07 08:29:00,25.3,20.3,30.38,South,181,3.0,11.0,81,0.00,,,0.00,VWS V14.01,2013-01-07 14:29:00,
2013-01-07 08:30:00,25.5,20.5,30.38,South,191,5.0,8.0,81,0.00,,,0.00,VWS V14.01,2013-01-07 14:30:00,
2013-01-07 08:31:00,25.5,20.5,30.38,South,188,3.0,8.0,81,0.00,,,0.00,VWS V14.01,2013-01-07 14:31:00,
2013-01-07 08:32:00,25.5,20.5,30.38,SSW,198,11.0,11.0,81,0.00,,,0.00,VWS V14.01,2013-01-07 14:32:00,
2013-01-07 08:35:00,25.6,20.6,30.38,SSE,153,5.0,11.0,81,0.00,,,0.00,VWS V14.01,2013-01-07 14:35:00,
2013-01-07 08:36:00,25.7,20.7,30.38,SSW,198,6.0,12.0,81,0.00,,,0.00,VWS V14.01,2013-01-07 14:36:00,
2013-01-07 08:38:00,25.9,20.9,30.38,SSE,147,4.0,12.0,81,0.00,,,0.00,VWS V14.01,2013-01-07 14:38:00,
2013-01-07 08:40:00,25.9,20.9,30.38,South,169,0.0,12.0,81,0.00,,,0.00,VWS V14.01,2013-01-07 14:40:00,
2013-01-07 08:41:00,26.0,21.0,30.38,South,183,3.0,12.0,81,0.00,,,0.00,VWS V14.01,2013-01-07 14:41:00,
2013-01-07 08:43:00,26.2,21.2,30.38,South,175,0.0,12.0,81,0.00,,,0.00,VWS V14.01,2013-01-07 14:43:00,
2013-01-07 08:45:00,26.3,21.3,30.38,South,188,1.0,12.0,81,0.00,,,0.00,VWS V14.01,2013-01-07 14:45:00,
2013-01-07 08:46:00,26.5,21.5,30.38,SSW,196,8.0,12.0,81,0.00,,,0.00,VWS V14.01,2013-01-07 14:46:00,
2013-01-07 08:48:00,26.5,21.2,30.38,ESE,121,5.0,12.0,80,0.00,,,0.00,VWS V14.01,2013-01-07 14:48:00,
2013-01-07 08:50:00,26.6,21.3,30.38,South,178,10.0,13.0,80,0.00,,,0.00,VWS V14.01,2013-01-07 14:50:00,
2013-01-07 08:51:00,26.6,21.3,30.38,SSE,159,4.0,13.0,80,0.00,,,0.00,VWS V14.01,2013-01-07 14:51:00,
2013-01-07 08:53:00,26.6,21.3,30.38,South,180,5.0,13.0,80,0.00,,,0.00,VWS V14.01,2013-01-07 14:53:00,
2013-01-07 08:55:00,26.9,21.6,30.38,SSW,202,11.0,13.0,80,0.00,,,0.00,VWS V14.01,2013-01-07 14:55:00,
2013-01-07 08:56:00,26.9,21.3,30.38,SSW,194,5.0,13.0,79,0.00,,,0.00,VWS V14.01,2013-01-07 14:56:00,
2013-01-07 08:58:00,26.9,21.3,30.38,South,176,3.0,13.0,79,0.00,,,0.00,VWS V14.01,2013-01-07 14:58:00,
2013-01-07 09:00:00,27.2,21.9,30.38,South,186,3.0,6.0,80,0.00,,,0.00,VWS V14.01,2013-01-07 15:00:00,
2013-01-07 09:01:00,27.2,21.9,30.38,SSW,202,5.0,6.0,80,0.00,,,0.00,VWS V14.01,2013-01-07 15:01:00,
2013-01-07 09:04:00,27.2,21.6,30.38,South,171,4.0,11.0,79,0.00,,,0.00,VWS V14.01,2013-01-07 15:04:00,
2013-01-07 09:06:00,27.4,21.8,30.38,SSW,207,5.0,11.0,79,0.00,,,0.00,VWS V14.01,2013-01-07 15:06:00,
2013-01-07 09:09:00,27.5,21.5,30.38,South,188,2.0,11.0,78,0.00,,,0.00,VWS V14.01,2013-01-07 15:09:00,
2013-01-07 09:11:00,27.7,22.0,30.38,South,173,2.0,11.0,79,0.00,,,0.00,VWS V14.01,2013-01-07 15:11:00,
2013-01-07 09:12:00,27.8,20.9,30.38,SSE,167,5.0,11.0,75,0.00,,,0.00,VWS V14.01,2013-01-07 15:12:00,
2013-01-07 09:14:00,27.8,21.9,30.37,SSE,150,2.0,13.0,78,0.00,,,0.00,VWS V14.01,2013-01-07 15:14:00,
2013-01-07 09:16:00,28.0,22.0,30.37,SSE,165,4.0,13.0,78,0.00,,,0.00,VWS V14.01,2013-01-07 15:16:00,
2013-01-07 09:17:00,28.0,21.7,30.37,SSW,196,5.0,13.0,77,0.00,,,0.00,VWS V14.01,2013-01-07 15:17:00,
2013-01-07 09:19:00,28.1,22.1,30.37,SSW,192,4.0,13.0,78,0.00,,,0.00,VWS V14.01,2013-01-07 15:19:00,
2013-01-07 09:21:00,28.3,22.3,30.37,South,169,2.0,13.0,78,0.00,,,0.00,VWS V14.01,2013-01-07 15:21:00,
2013-01-07 09:22:00,28.3,22.3,30.37,SSW,193,6.0,13.0,78,0.00,,,0.00,VWS V14.01,2013-01-07 15:22:00,
2013-01-07 09:24:00,28.6,22.3,30.37,South,169,4.0,13.0,77,0.00,,,0.00,VWS V14.01,2013-01-07 15:24:00,
2013-01-07 09:26:00,28.7,22.4,30.37,SE,139,6.0,13.0,77,0.00,,,0.00,VWS V14.01,2013-01-07 15:26:00,
2013-01-07 09:27:00,28.7,22.4,30.37,SSE,165,5.0,13.0,77,0.00,,,0.00,VWS V14.01,2013-01-07 15:27:00,
2013-01-07 09:29:00,28.7,22.1,30.37,South,178,12.0,13.0,76,0.00,,,0.00,VWS V14.01,2013-01-07 15:29:00,
2013-01-07 09:30:00,28.7,22.1,30.37,South,177,6.0,13.0,76,0.00,,,0.00,VWS V14.01,2013-01-07 15:30:00,
2013-01-07 09:32:00,28.6,22.0,30.37,SE,144,3.0,13.0,76,0.00,,,0.00,VWS V14.01,2013-01-07 15:32:00,
2013-01-07 09:34:00,28.6,22.0,30.37,South,183,5.0,13.0,76,0.00,,,0.00,VWS V14.01,2013-01-07 15:34:00,
2013-01-07 09:37:00,28.7,22.1,30.37,South,188,4.0,13.0,76,0.00,,,0.00,VWS V14.01,2013-01-07 15:37:00,
2013-01-07 09:40:00,28.9,22.6,30.37,SW,214,12.0,13.0,77,0.00,,,0.00,VWS V14.01,2013-01-07 15:40:00,
2013-01-07 09:42:00,29.0,22.4,30.37,SSE,157,2.0,13.0,76,0.00,,,0.00,VWS V14.01,2013-01-07 15:42:00,
2013-01-07 09:45:00,29.3,22.7,30.37,South,184,4.0,13.0,76,0.00,,,0.00,VWS V14.01,2013-01-07 15:45:00,
2013-01-07 09:47:00,29.4,22.8,30.37,SSW,194,3.0,13.0,76,0.00,,,0.00,VWS V14.01,2013-01-07 15:47:00,
2013-01-07 09:50:00,29.7,23.1,30.37,SSE,156,0.0,13.0,76,0.00,,,0.00,VWS V14.01,2013-01-07 15:50:00,
2013-01-07 09:52:00,29.9,23.0,30.37,South,180,13.0,17.0,75,0.00,,,0.00,VWS V14.01,2013-01-07 15:52:00,
2013-01-07 09:55:00,30.0,23.0,30.37,South,185,2.0,17.0,75,0.00,,,0.00,VWS V14.01,2013-01-07 15:55:00,
2013-01-07 09:57:00,30.0,22.7,30.37,SSE,166,6.0,17.0,74,0.00,,,0.00,VWS V14.01,2013-01-07 15:57:00,
2013-01-07 10:00:00,29.9,22.3,30.37,ESE,122,6.0,9.0,73,0.00,,,0.00,VWS V14.01,2013-01-07 16:00:00,
2013-01-07 10:02:00,30.2,22.9,30.37,SSE,147,6.0,11.0,74,0.00,,,0.00,VWS V14.01,2013-01-07 16:02:00,
2013-01-07 10:05:00,30.3,23.3,30.37,South,181,3.0,12.0,75,0.00,,,0.00,VWS V14.01,2013-01-07 16:05:00,
2013-01-07 10:07:00,30.3,22.7,30.37,SE,142,5.0,13.0,73,0.00,,,0.00,VWS V14.01,2013-01-07 16:07:00,
2013-01-07 10:08:00,30.5,22.9,30.37,SSE,167,3.0,13.0,73,0.00,,,0.00,VWS V14.01,2013-01-07 16:08:00,
2013-01-07 10:10:00,30.5,22.9,30.37,South,176,2.0,13.0,73,0.00,,,0.00,VWS V14.01,2013-01-07 16:10:00,
2013-01-07 10:12:00,30.6,22.7,30.37,South,174,4.0,16.0,72,0.00,,,0.00,VWS V14.01,2013-01-07 16:12:00,
2013-01-07 10:13:00,30.6,22.7,30.37,South,173,10.0,16.0,72,0.00,,,0.00,VWS V14.01,2013-01-07 16:13:00,
2013-01-07 10:16:00,30.6,22.7,30.37,SSE,148,7.0,19.0,72,0.00,,,0.00,VWS V14.01,2013-01-07 16:16:00,
2013-01-07 10:18:00,30.6,22.7,30.37,South,188,10.0,19.0,72,0.00,,,0.00,VWS V14.01,2013-01-07 16:18:00,
2013-01-07 10:21:00,30.8,22.9,30.37,South,184,8.0,19.0,72,0.00,,,0.00,VWS V14.01,2013-01-07 16:21:00,
2013-01-07 10:23:00,30.9,23.0,30.37,South,186,3.0,19.0,72,0.00,,,0.00,VWS V14.01,2013-01-07 16:23:00,
2013-01-07 10:26:00,31.4,23.4,30.37,South,178,6.0,19.0,72,0.00,,,0.00,VWS V14.01,2013-01-07 16:26:00,
2013-01-07 10:28:00,31.4,23.1,30.37,South,178,5.0,19.0,71,0.00,,,0.00,VWS V14.01,2013-01-07 16:28:00,
2013-01-07 10:30:00,31.2,22.9,30.35,South,169,9.0,19.0,71,0.00,,,0.00,VWS V14.01,2013-01-07 16:30:00,
2013-01-07 10:31:00,31.2,22.9,30.35,SSE,155,7.0,16.0,71,0.00,,,0.00,VWS V14.01,2013-01-07 16:31:00,
2013-01-07 10:33:00,31.2,22.9,30.35,SE,134,9.0,16.0,71,0.00,,,0.00,VWS V14.01,2013-01-07 16:33:00,
2013-01-07 10:36:00,31.4,23.1,30.35,SSW,208,7.0,16.0,71,0.00,,,0.00,VWS V14.01,2013-01-07 16:36:00,
2013-01-07 10:38:00,31.4,22.4,30.35,SSW,213,18.0,19.0,69,0.00,,,0.00,VWS V14.01,2013-01-07 16:38:00,
2013-01-07 10:41:00,31.5,22.9,30.35,SSW,209,9.0,19.0,70,0.00,,,0.00,VWS V14.01,2013-01-07 16:41:00,
2013-01-07 10:43:00,31.7,23.0,30.35,SSW,195,7.0,19.0,70,0.00,,,0.00,VWS V14.01,2013-01-07 16:43:00,
2013-01-07 10:44:00,31.7,23.0,30.35,SSW,208,8.0,19.0,70,0.00,,,0.00,VWS V14.01,2013-01-07 16:44:00,
2013-01-07 10:47:00,31.7,22.7,30.35,SSW,200,6.0,19.0,69,0.00,,,0.00,VWS V14.01,2013-01-07 16:47:00,
2013-01-07 10:48:00,31.7,22.7,30.35,SW,215,9.0,19.0,69,0.00,,,0.00,VWS V14.01,2013-01-07 16:48:00,
2013-01-07 10:49:00,31.7,22.7,30.35,South,184,4.0,19.0,69,0.00,,,0.00,VWS V14.01,2013-01-07 16:49:00,
2013-01-07 10:52:00,31.8,22.5,30.35,SSW,207,17.0,19.0,68,0.00,,,0.00,VWS V14.01,2013-01-07 16:52:00,
2013-01-07 10:53:00,32.0,23.0,30.35,South,188,7.0,19.0,69,0.00,,,0.00,VWS V14.01,2013-01-07 16:53:00,
2013-01-07 10:54:00,32.0,22.6,30.35,SSW,198,5.0,19.0,68,0.00,,,0.00,VWS V14.01,2013-01-07 16:54:00,
2013-01-07 10:57:00,32.3,22.9,30.35,South,186,11.0,19.0,68,0.00,,,0.00,VWS V14.01,2013-01-07 16:57:00,
2013-01-07 10:58:00,32.3,22.9,30.35,SSW,207,5.0,19.0,68,0.00,,,0.00,VWS V14.01,2013-01-07 16:58:00,
2013-01-07 10:59:00,32.3,22.9,30.34,SSW,202,8.0,19.0,68,0.00,,,0.00,VWS V14.01,2013-01-07 16:59:00,
2013-01-07 11:00:00,32.3,22.9,30.34,SSW,205,6.0,19.0,68,0.00,,,0.00,VWS V14.01,2013-01-07 17:00:00,
2013-01-07 11:02:00,32.7,23.3,30.34,South,187,2.0,9.0,68,0.00,,,0.00,VWS V14.01,2013-01-07 17:02:00,
2013-01-07 11:03:00,32.8,23.4,30.34,South,178,3.0,9.0,68,0.00,,,0.00,VWS V14.01,2013-01-07 17:03:00,
2013-01-07 11:04:00,33.0,23.6,30.34,SSW,198,5.0,9.0,68,0.00,,,0.00,VWS V14.01,2013-01-07 17:04:00,
2013-01-07 11:07:00,32.7,22.6,30.34,SSW,192,6.0,21.0,66,0.00,,,0.00,VWS V14.01,2013-01-07 17:07:00,
2013-01-07 11:08:00,32.8,23.1,30.34,SSW,192,7.0,21.0,67,0.00,,,0.00,VWS V14.01,2013-01-07 17:08:00,
2013-01-07 11:09:00,32.8,23.1,30.34,SSW,195,17.0,21.0,67,0.00,,,0.00,VWS V14.01,2013-01-07 17:09:00,
2013-01-07 11:12:00,32.7,22.6,30.34,SSE,150,7.0,21.0,66,0.00,,,0.00,VWS V14.01,2013-01-07 17:12:00,
2013-01-07 11:13:00,32.8,23.1,30.34,South,169,6.0,21.0,67,0.00,,,0.00,VWS V14.01,2013-01-07 17:13:00,
2013-01-07 11:14:00,32.8,23.1,30.33,South,178,6.0,21.0,67,0.00,,,0.00,VWS V14.01,2013-01-07 17:14:00,
2013-01-07 11:17:00,33.0,22.9,30.33,SE,135,5.0,21.0,66,0.00,,,0.00,VWS V14.01,2013-01-07 17:17:00,
2013-01-07 11:18:00,33.0,22.9,30.33,SSE,157,6.0,21.0,66,0.00,,,0.00,VWS V14.01,2013-01-07 17:18:00,
2013-01-07 11:19:00,33.0,22.9,30.33,South,180,4.0,21.0,66,0.00,,,0.00,VWS V14.01,2013-01-07 17:19:00,
2013-01-07 11:20:00,33.0,22.9,30.33,South,180,6.0,21.0,66,0.00,,,0.00,VWS V14.01,2013-01-07 17:20:00,
2013-01-07 11:22:00,33.1,23.0,30.33,SE,142,6.0,21.0,66,0.00,,,0.00,VWS V14.01,2013-01-07 17:22:00,
2013-01-07 11:24:00,33.3,23.2,30.33,SSW,199,6.0,21.0,66,0.00,,,0.00,VWS V14.01,2013-01-07 17:24:00,
2013-01-07 11:25:00,33.1,23.0,30.33,SSW,205,10.0,21.0,66,0.00,,,0.00,VWS V14.01,2013-01-07 17:25:00,
2013-01-07 11:27:00,33.0,23.2,30.33,South,175,4.0,21.0,67,0.00,,,0.00,VWS V14.01,2013-01-07 17:27:00,
2013-01-07 11:28:00,33.3,23.5,30.33,South,184,16.0,21.0,67,0.00,,,0.00,VWS V14.01,2013-01-07 17:28:00,
2013-01-07 11:29:00,33.3,23.5,30.32,South,184,15.0,21.0,67,0.00,,,0.00,VWS V14.01,2013-01-07 17:29:00,
2013-01-07 11:30:00,33.3,23.2,30.32,South,180,12.0,12.0,66,0.00,,,0.00,VWS V14.01,2013-01-07 17:30:00,
2013-01-07 11:32:00,33.6,23.8,30.32,SSE,163,5.0,12.0,67,0.00,,,0.00,VWS V14.01,2013-01-07 17:32:00,
2013-01-07 11:34:00,33.6,23.8,30.32,SSW,195,10.0,12.0,67,0.00,,,0.00,VWS V14.01,2013-01-07 17:34:00,
2013-01-07 11:35:00,33.6,23.5,30.32,SSE,150,15.0,15.0,66,0.00,,,0.00,VWS V14.01,2013-01-07 17:35:00,
2013-01-07 11:37:00,33.6,23.5,30.32,South,186,7.0,15.0,66,0.00,,,0.00,VWS V14.01,2013-01-07 17:37:00,
2013-01-07 11:39:00,33.7,23.6,30.32,South,174,4.0,15.0,66,0.00,,,0.00,VWS V14.01,2013-01-07 17:39:00,
2013-01-07 11:40:00,33.9,24.1,30.32,SW,219,9.0,15.0,67,0.00,,,0.00,VWS V14.01,2013-01-07 17:40:00,
2013-01-07 11:43:00,34.3,24.1,30.32,SSW,198,3.0,18.0,66,0.00,,,0.00,VWS V14.01,2013-01-07 17:43:00,
2013-01-07 11:44:00,34.5,24.3,30.31,SSW,204,11.0,18.0,66,0.00,,,0.00,VWS V14.01,2013-01-07 17:44:00,
2013-01-07 11:45:00,34.5,24.3,30.31,SSW,198,4.0,18.0,66,0.00,,,0.00,VWS V14.01,2013-01-07 17:45:00,
2013-01-07 11:48:00,34.6,24.1,30.31,South,182,9.0,18.0,65,0.00,,CLR,0.00,VWS V14.01,2013-01-07 17:48:00,
2013-01-07 11:49:00,34.6,24.1,30.31,South,188,5.0,18.0,65,0.00,,CLR,0.00,VWS V14.01,2013-01-07 17:49:00,
2013-01-07 11:50:00,34.6,24.1,30.31,SSW,196,6.0,18.0,65,0.00,,CLR,0.00,VWS V14.01,2013-01-07 17:50:00,
2013-01-07 11:53:00,34.8,23.9,30.31,South,173,11.0,18.0,64,0.00,,CLR,0.00,VWS V14.01,2013-01-07 17:53:00,
2013-01-07 11:54:00,34.6,24.1,30.31,South,189,4.0,18.0,65,0.00,,CLR,0.00,VWS V14.01,2013-01-07 17:54:00,
2013-01-07 11:55:00,34.6,24.1,30.31,SW,217,7.0,18.0,65,0.00,,CLR,0.00,VWS V14.01,2013-01-07 17:55:00,
2013-01-07 11:58:00,34.3,24.1,30.31,South,182,3.0,18.0,66,0.00,,CLR,0.00,VWS V14.01,2013-01-07 17:58:00,
2013-01-07 11:59:00,34.5,24.3,30.30,SSW,193,7.0,18.0,66,0.00,,CLR,0.00,VWS V14.01,2013-01-07 17:59:00,
2013-01-07 12:00:00,34.5,24.3,30.30,SSE,155,3.0,4.0,66,0.00,,CLR,0.00,VWS V14.01,2013-01-07 18:00:00,
2013-01-07 12:03:00,34.9,24.3,30.30,SSW,196,4.0,9.0,65,0.00,,,0.00,VWS V14.01,2013-01-07 18:03:00,
2013-01-07 12:05:00,34.9,24.3,30.30,SSE,153,3.0,9.0,65,0.00,,,0.00,VWS V14.01,2013-01-07 18:05:00,
2013-01-07 12:08:00,35.4,24.8,30.30,SSW,202,8.0,14.0,65,0.00,,,0.00,VWS V14.01,2013-01-07 18:08:00,
2013-01-07 12:10:00,35.4,24.8,30.30,South,187,4.0,14.0,65,0.00,,,0.00,VWS V14.01,2013-01-07 18:10:00,
2013-01-07 12:11:00,35.4,24.5,30.30,South,179,5.0,14.0,64,0.00,,,0.00,VWS V14.01,2013-01-07 18:11:00,
2013-01-07 12:13:00,35.5,24.9,30.30,South,172,9.0,14.0,65,0.00,,,0.00,VWS V14.01,2013-01-07 18:13:00,
2013-01-07 12:15:00,35.4,24.5,30.28,SSW,195,10.0,14.0,64,0.00,,,0.00,VWS V14.01,2013-01-07 18:15:00,
2013-01-07 12:16:00,35.4,24.5,30.28,South,188,5.0,14.0,64,0.00,,,0.00,VWS V14.01,2013-01-07 18:16:00,
2013-01-07 12:18:00,35.4,24.5,30.28,SSW,196,5.0,14.0,64,0.00,,,0.00,VWS V14.01,2013-01-07 18:18:00,
2013-01-07 12:20:00,35.4,24.5,30.28,South,174,3.0,14.0,64,0.00,,,0.00,VWS V14.01,2013-01-07 18:20:00,
2013-01-07 12:21:00,35.7,25.1,30.28,South,185,2.0,14.0,65,0.00,,,0.00,VWS V14.01,2013-01-07 18:21:00,
2013-01-07 12:23:00,35.8,24.8,30.28,South,175,5.0,14.0,64,0.00,,,0.00,VWS V14.01,2013-01-07 18:23:00,
2013-01-07 12:25:00,35.8,24.8,30.28,South,179,10.0,14.0,64,0.00,,,0.00,VWS V14.01,2013-01-07 18:25:00,
2013-01-07 12:26:00,35.8,24.8,30.28,SSE,166,5.0,14.0,64,0.00,,,0.00,VWS V14.01,2013-01-07 18:26:00,
2013-01-07 12:29:00,35.5,24.2,30.28,South,174,5.0,15.0,63,0.00,,,0.00,VWS V14.01,2013-01-07 18:29:00,
2013-01-07 12:30:00,35.4,24.5,30.28,SSE,155,4.0,7.0,64,0.00,,,0.00,VWS V14.01,2013-01-07 18:30:00,
2013-01-07 12:31:00,35.4,24.8,30.28,South,183,5.0,10.0,65,0.00,,,0.00,VWS V14.01,2013-01-07 18:31:00,
2013-01-07 12:34:00,35.7,25.1,30.28,SSW,196,6.0,10.0,65,0.00,,,0.00,VWS V14.01,2013-01-07 18:34:00,
2013-01-07 12:35:00,35.7,24.7,30.28,South,190,7.0,14.0,64,0.00,,,0.00,VWS V14.01,2013-01-07 18:35:00,
2013-01-07 12:36:00,35.8,24.5,30.28,SSE,167,9.0,14.0,63,0.00,,,0.00,VWS V14.01,2013-01-07 18:36:00,
2013-01-07 12:39:00,35.8,24.1,30.28,SSE,165,3.0,16.0,62,0.00,,,0.00,VWS V14.01,2013-01-07 18:39:00,
2013-01-07 12:40:00,35.9,24.5,30.28,South,185,5.0,16.0,63,0.00,,,0.00,VWS V14.01,2013-01-07 18:40:00,
2013-01-07 12:41:00,35.9,24.5,30.28,South,180,6.0,16.0,63,0.00,,,0.00,VWS V14.01,2013-01-07 18:41:00,
2013-01-07 12:44:00,36.1,24.7,30.27,SSE,157,6.0,16.0,63,0.00,,,0.00,VWS V14.01,2013-01-07 18:44:00,
2013-01-07 12:45:00,36.1,24.7,30.27,SE,138,6.0,16.0,63,0.00,,CLR,0.00,VWS V14.01,2013-01-07 18:45:00,
2013-01-07 12:46:00,36.1,24.7,30.27,South,174,2.0,16.0,63,0.00,,CLR,0.00,VWS V14.01,2013-01-07 18:46:00,
2013-01-07 12:49:00,36.2,24.8,30.27,SSE,153,2.0,16.0,63,0.00,,CLR,0.00,VWS V14.01,2013-01-07 18:49:00,
2013-01-07 12:50:00,36.2,24.8,30.27,South,176,10.0,16.0,63,0.00,,CLR,0.00,VWS V14.01,2013-01-07 18:50:00,
2013-01-07 12:51:00,36.2,24.5,30.27,SSW,195,6.0,16.0,62,0.00,,CLR,0.00,VWS V14.01,2013-01-07 18:51:00,
2013-01-07 12:54:00,36.4,25.4,30.27,South,171,4.0,16.0,64,0.00,,CLR,0.00,VWS V14.01,2013-01-07 18:54:00,
2013-01-07 13:00:00,36.4,25.0,30.25,South,178,3.0,16.0,63,0.00,,,0.00,VWS V14.01,2013-01-07 19:00:00,
2013-01-07 13:30:00,36.4,24.6,30.24,South,190,12.0,16.0,62,0.00,,,0.00,VWS V14.01,2013-01-07 19:30:00,
2013-01-07 14:00:00,36.7,24.9,30.24,SSE,150,6.0,13.0,62,0.00,,,0.00,VWS V14.01,2013-01-07 20:00:00,
2013-01-07 14:30:00,36.5,24.7,30.22,SE,126,9.0,16.0,62,0.00,,,0.00,VWS V14.01,2013-01-07 20:30:00,
2013-01-07 15:00:00,36.7,24.5,30.22,SSE,161,4.0,14.0,61,0.00,,,0.00,VWS V14.01,2013-01-07 21:00:00,
2013-01-07 15:30:00,36.8,24.6,30.22,South,179,6.0,15.0,61,0.00,,,0.00,VWS V14.01,2013-01-07 21:30:00,
2013-01-07 16:00:00,36.5,24.7,30.20,SSE,163,0.0,15.0,62,0.00,,,0.00,VWS V14.01,2013-01-07 22:00:00,
2013-01-07 16:30:00,35.2,24.6,30.21,SSE,165,0.0,9.0,65,0.00,,,0.00,VWS V14.01,2013-01-07 22:30:00,
2013-01-07 17:00:00,33.9,24.5,30.19,SE,144,0.0,9.0,68,0.00,,,0.00,VWS V14.01,2013-01-07 23:00:00,
2013-01-07 17:30:00,33.7,24.6,30.19,SSE,167,3.0,12.0,69,0.00,,,0.00,VWS V14.01,2013-01-07 23:30:00,
2013-01-07 18:00:00,33.3,24.2,30.19,SE,146,1.0,6.0,69,0.00,,,0.00,VWS V14.01,2013-01-08 00:00:00,
2013-01-07 18:30:00,33.4,24.0,30.18,SE,131,0.0,10.0,68,0.00,,,0.00,VWS V14.01,2013-01-08 00:30:00,
2013-01-07 19:00:00,32.8,23.8,30.18,SE,136,0.0,7.0,69,0.00,,,0.00,VWS V14.01,2013-01-08 01:00:00,
2013-01-07 19:30:00,33.0,24.0,30.17,SSE,160,2.0,9.0,69,0.00,,,0.00,VWS V14.01,2013-01-08 01:30:00,
2013-01-07 20:00:00,32.3,23.6,30.17,South,178,4.0,9.0,70,0.00,,,0.00,VWS V14.01,2013-01-08 02:00:00,
2013-01-07 20:30:00,32.4,23.7,30.17,SSW,192,4.0,7.0,70,0.00,,,0.00,VWS V14.01,2013-01-08 02:30:00,
2013-01-07 21:00:00,32.7,24.0,30.16,South,171,6.0,11.0,70,0.00,,,0.00,VWS V14.01,2013-01-08 03:00:00,
2013-01-07 21:30:00,32.1,23.8,30.15,SSE,157,3.0,9.0,71,0.00,,,0.00,VWS V14.01,2013-01-08 03:30:00,
2013-01-07 21:55:00,32.0,23.7,30.15,SSW,207,6.0,10.0,71,0.00,,CLR,0.00,VWS V14.01,2013-01-08 03:55:00,
2013-01-07 22:00:00,31.8,23.5,30.15,South,177,4.0,5.0,71,0.00,,CLR,0.00,VWS V14.01,2013-01-08 04:00:00,
2013-01-07 22:01:00,31.8,23.5,30.15,South,179,5.0,8.0,71,0.00,,CLR,0.00,VWS V14.01,2013-01-08 04:01:00,
2013-01-07 22:05:00,31.8,23.5,30.15,SE,141,7.0,10.0,71,0.00,,CLR,0.00,VWS V14.01,2013-01-08 04:05:00,
2013-01-07 22:06:00,31.8,23.5,30.15,South,184,2.0,10.0,71,0.00,,CLR,0.00,VWS V14.01,2013-01-08 04:06:00,
2013-01-07 22:10:00,31.7,23.4,30.15,SSE,168,0.0,10.0,71,0.00,,CLR,0.00,VWS V14.01,2013-01-08 04:10:00,
2013-01-07 22:11:00,31.7,23.4,30.15,South,190,5.0,10.0,71,0.00,,CLR,0.00,VWS V14.01,2013-01-08 04:11:00,
2013-01-07 22:15:00,31.7,23.4,30.15,South,191,6.0,10.0,71,0.00,,CLR,0.00,VWS V14.01,2013-01-08 04:15:00,
2013-01-07 22:16:00,31.7,23.4,30.15,South,188,3.0,10.0,71,0.00,,CLR,0.00,VWS V14.01,2013-01-08 04:16:00,
2013-01-07 22:21:00,31.7,23.4,30.15,SSW,199,7.0,10.0,71,0.00,,CLR,0.00,VWS V14.01,2013-01-08 04:21:00,
2013-01-07 22:26:00,31.5,23.2,30.15,South,169,0.0,12.0,71,0.00,,CLR,0.00,VWS V14.01,2013-01-08 04:26:00,
2013-01-07 22:30:00,31.5,23.2,30.15,SSE,164,2.0,12.0,71,0.00,,,0.00,VWS V14.01,2013-01-08 04:30:00,
2013-01-07 22:31:00,31.4,23.4,30.15,South,179,2.0,7.0,72,0.00,,CLR,0.00,VWS V14.01,2013-01-08 04:31:00,
2013-01-07 22:36:00,31.4,23.4,30.15,SSW,194,0.0,9.0,72,0.00,,CLR,0.00,VWS V14.01,2013-01-08 04:36:00,
2013-01-07 22:37:00,31.4,23.1,30.15,South,182,5.0,9.0,71,0.00,,CLR,0.00,VWS V14.01,2013-01-08 04:37:00,
2013-01-07 22:41:00,31.4,23.1,30.15,South,190,3.0,9.0,71,0.00,,CLR,0.00,VWS V14.01,2013-01-08 04:41:00,
2013-01-07 22:42:00,31.4,23.1,30.15,South,185,0.0,9.0,71,0.00,,CLR,0.00,VWS V14.01,2013-01-08 04:42:00,
2013-01-07 22:46:00,31.2,23.2,30.15,South,184,2.0,9.0,72,0.00,,CLR,0.00,VWS V14.01,2013-01-08 04:46:00,
2013-01-07 22:47:00,31.2,23.2,30.15,South,183,0.0,9.0,72,0.00,,CLR,0.00,VWS V14.01,2013-01-08 04:47:00,
2013-01-07 22:51:00,31.1,23.1,30.15,SSE,150,2.0,9.0,72,0.00,,CLR,0.00,VWS V14.01,2013-01-08 04:51:00,
2013-01-07 22:52:00,30.9,23.0,30.15,South,183,1.0,9.0,72,0.00,,CLR,0.00,VWS V14.01,2013-01-08 04:52:00,
2013-01-07 22:56:00,30.9,23.0,30.15,South,189,0.0,9.0,72,0.00,,CLR,0.00,VWS V14.01,2013-01-08 04:56:00,
2013-01-07 22:57:00,30.9,23.0,30.15,South,182,2.0,9.0,72,0.00,,CLR,0.00,VWS V14.01,2013-01-08 04:57:00,
2013-01-07 23:00:00,30.8,22.9,30.15,South,178,0.0,0.0,72,0.00,,CLR,0.00,VWS V14.01,2013-01-08 05:00:00,
2013-01-07 23:02:00,30.8,22.9,30.15,SSW,209,2.0,6.0,72,0.00,,CLR,0.00,VWS V14.01,2013-01-08 05:02:00,
2013-01-07 23:03:00,30.8,23.2,30.15,SSW,195,2.0,10.0,73,0.00,,CLR,0.00,VWS V14.01,2013-01-08 05:03:00,
2013-01-07 23:05:00,30.8,23.2,30.15,SSW,200,5.0,10.0,73,0.00,,CLR,0.00,VWS V14.01,2013-01-08 05:05:00,
2013-01-07 23:07:00,30.9,23.0,30.15,SSW,193,0.0,10.0,72,0.00,,CLR,0.00,VWS V14.01,2013-01-08 05:07:00,
2013-01-07 23:08:00,30.8,22.9,30.15,SSW,192,1.0,10.0,72,0.00,,CLR,0.00,VWS V14.01,2013-01-08 05:08:00,
2013-01-07 23:10:00,30.8,23.2,30.15,South,178,0.0,10.0,73,0.00,,CLR,0.00,VWS V14.01,2013-01-08 05:10:00,
2013-01-07 23:13:00,30.8,23.2,30.15,SSE,150,2.0,10.0,73,0.00,,CLR,0.00,VWS V14.01,2013-01-08 05:13:00,
2013-01-07 23:15:00,30.8,23.2,30.15,SSE,165,0.0,10.0,73,0.00,,CLR,0.00,VWS V14.01,2013-01-08 05:15:00,
2013-01-07 23:18:00,30.8,23.2,30.15,SSE,161,2.0,10.0,73,0.00,,CLR,0.00,VWS V14.01,2013-01-08 05:18:00,
2013-01-07 23:20:00,30.8,23.2,30.15,SSE,163,0.0,10.0,73,0.00,,CLR,0.00,VWS V14.01,2013-01-08 05:20:00,
2013-01-07 23:23:00,30.8,23.2,30.15,SSE,162,2.0,10.0,73,0.00,,CLR,0.00,VWS V14.01,2013-01-08 05:23:00,
2013-01-07 23:25:00,30.8,23.2,30.15,SSW,194,2.0,10.0,73,0.00,,CLR,0.00,VWS V14.01,2013-01-08 05:25:00,
2013-01-07 23:28:00,30.9,23.3,30.15,South,182,1.0,10.0,73,0.00,,CLR,0.00,VWS V14.01,2013-01-08 05:28:00,
2013-01-07 23:30:00,30.9,23.0,30.14,South,184,0.0,3.0,72,0.00,,CLR,0.00,VWS V14.01,2013-01-08 05:30:00,
2013-01-07 23:33:00,31.1,23.1,30.14,South,178,0.0,6.0,72,0.00,,CLR,0.00,VWS V14.01,2013-01-08 05:33:00,
2013-01-07 23:35:00,31.1,23.1,30.14,South,178,0.0,6.0,72,0.00,,CLR,0.00,VWS V14.01,2013-01-08 05:35:00,
2013-01-07 23:38:00,30.9,23.0,30.14,South,188,3.0,7.0,72,0.00,,CLR,0.00,VWS V14.01,2013-01-08 05:38:00,
2013-01-07 23:40:00,30.9,23.0,30.14,South,186,0.0,7.0,72,0.00,,CLR,0.00,VWS V14.01,2013-01-08 05:40:00,
2013-01-07 23:41:00,30.9,23.0,30.14,South,186,0.0,7.0,72,0.00,,CLR,0.00,VWS V14.01,2013-01-08 05:41:00,
2013-01-07 23:43:00,31.1,23.1,30.14,South,182,0.0,7.0,72,0.00,,CLR,0.00,VWS V14.01,2013-01-08 05:43:00,
2013-01-07 23:44:00,31.1,23.1,30.14,South,182,0.0,7.0,72,0.00,,CLR,0.00,VWS V14.01,2013-01-08 05:44:00,
2013-01-07 23:45:00,31.1,23.1,30.14,South,186,0.0,7.0,72,0.00,,CLR,0.00,VWS V14.01,2013-01-08 05:45:00,
2013-01-07 23:46:00,31.1,23.1,30.14,South,185,0.0,7.0,72,0.00,,CLR,0.00,VWS V14.01,2013-01-08 05:46:00,
2013-01-07 23:48:00,31.1,23.1,30.14,South,190,0.0,7.0,72,0.00,,CLR,0.00,VWS V14.01,2013-01-08 05:48:00,
2013-01-07 23:49:00,31.1,23.1,30.14,South,188,0.0,7.0,72,0.00,,CLR,0.00,VWS V14.01,2013-01-08 05:49:00,
2013-01-07 23:50:00,31.1,23.1,30.14,South,188,1.0,7.0,72,0.00,,CLR,0.00,VWS V14.01,2013-01-08 05:50:00,
2013-01-07 23:51:00,31.1,23.1,30.14,SSE,168,3.0,7.0,72,0.00,,CLR,0.00,VWS V14.01,2013-01-08 05:51:00,
2013-01-07 23:53:00,31.2,23.2,30.14,South,177,0.0,7.0,72,0.00,,CLR,0.00,VWS V14.01,2013-01-08 05:53:00,
2013-01-07 23:54:00,31.2,23.2,30.14,South,177,0.0,7.0,72,0.00,,CLR,0.00,VWS V14.01,2013-01-08 05:54:00,
2013-01-07 23:55:00,31.2,23.2,30.14,South,171,0.0,7.0,72,0.00,,CLR,0.00,VWS V14.01,2013-01-08 05:55:00,
2013-01-07 23:56:00,31.2,23.2,30.14,South,171,0.0,7.0,72,0.00,,CLR,0.00,VWS V14.01,2013-01-08 05:56:00,
2013-01-07 23:59:00,31.2,23.2,30.13,South,172,0.0,7.0,72,0.00,,CLR,0.00,VWS V14.01,2013-01-08 05:59:00,